"Period start","avg(HW err(1)/warn(2) (#))","avg(Visibility (m))","avg(Weather code (#))","avg(Precip intensity (mm/h))","min(HW err(1)/warn(2) (#))","max(HW err(1)/warn(2) (#))","std(HW err(1)/warn(2) (#))","med(HW err(1)/warn(2) (#))","min(Visibility (m))","max(Visibility (m))","std(Visibility (m))","med(Visibility (m))","min(Weather code (#))","max(Weather code (#))","std(Weather code (#))","med(Weather code (#))","min(Precip intensity (mm/h))","max(Precip intensity (mm/h))","std(Precip intensity (mm/h))","med(Precip intensity (mm/h))"
2013-08-17 00:00:00,2,46575,0,0.00,0,2,1,2,35468,50000,4434,48048,0,0,0,0,0.00,0.00,0.00,0.00
2013-08-17 00:10:00,2,43957,0,0.00,2,2,0,2,33077,50000,5865,45766,0,0,0,0,0.00,0.00,0.00,0.00
2013-08-17 00:20:00,2,40737,0,0.00,2,2,0,2,15611,50000,11838,46043,0,0,0,0,0.00,0.00,0.00,0.00
2013-08-17 00:30:00,2,35628,0,0.00,2,2,0,2,14389,50000,13608,37258,0,0,0,0,0.00,0.00,0.00,0.00
2013-08-17 00:40:00,2,38386,0,0.00,2,2,0,2,16194,50000,11388,42346,0,0,0,0,0.00,0.00,0.00,0.00
2013-08-17 00:50:00,2,47775,0,0.00,2,2,0,2,42776,50000,2660,49589,0,0,0,0,0.00,0.00,0.00,0.00
2013-08-17 01:00:00,2,48463,0,0.00,2,2,0,2,43055,50000,2458,50000,0,0,0,0,0.00,0.00,0.00,0.00
2013-08-17 01:10:00,2,47954,0,0.00,2,2,0,2,42799,50000,2693,49534,0,0,0,0,0.00,0.00,0.00,0.00
2013-08-17 01:20:00,2,49102,0,0.00,2,2,0,2,46878,50000,1095,49492,0,0,0,0,0.00,0.00,0.00,0.00
2013-08-17 01:30:00,2,49464,0,0.00,2,2,0,2,46131,50000,1197,50000,0,0,0,0,0.00,0.00,0.00,0.00
2013-08-17 01:40:00,1,49258,0,0.00,0,2,1,2,43492,50000,1935,50000,0,0,0,0,0.00,0.00,0.00,0.00
2013-08-17 01:50:00,0,49842,0,0.00,0,2,1,0,49112,50000,320,50000,0,0,0,0,0.00,0.00,0.00,0.00
2013-08-17 02:00:00,2,49825,0,0.00,0,2,1,2,48581,50000,426,50000,0,0,0,0,0.00,0.00,0.00,0.00
2013-08-17 02:10:00,2,48860,0,0.00,0,2,1,2,45540,50000,1529,50000,0,0,0,0,0.00,0.00,0.00,0.00
2013-08-17 02:20:00,2,47738,0,0.00,2,2,0,2,40505,50000,3447,49780,0,0,0,0,0.00,0.00,0.00,0.00
2013-08-17 02:30:00,1,49709,0,0.00,0,2,1,2,48879,50000,450,50000,0,0,0,0,0.00,0.00,0.00,0.00
2013-08-17 02:40:00,1,49797,0,0.00,0,2,1,0,48502,50000,460,50000,0,0,0,0,0.00,0.00,0.00,0.00
2013-08-17 02:50:00,2,48198,0,0.00,2,2,0,2,45553,50000,1650,48070,0,0,0,0,0.00,0.00,0.00,0.00
2013-08-17 03:00:00,1,48191,0,0.00,0,2,1,0,41169,50000,2968,50000,0,0,0,0,0.00,0.00,0.00,0.00
2013-08-17 03:10:00,0,49649,0,0.00,0,0,0,0,48861,50000,435,49862,0,0,0,0,0.00,0.00,0.00,0.00
2013-08-17 03:20:00,0,48073,0,0.00,0,0,0,0,39686,50000,3064,49420,0,0,0,0,0.00,0.00,0.00,0.00
2013-08-17 03:30:00,0,48888,0,0.00,0,2,1,0,43774,50000,1958,50000,0,0,0,0,0.00,0.00,0.00,0.00
2013-08-17 03:40:00,0,49799,0,0.00,0,0,0,0,48194,50000,538,50000,0,0,0,0,0.00,0.00,0.00,0.00
2013-08-17 03:50:00,0,47469,0,0.00,0,0,0,0,43649,50000,2608,48775,0,0,0,0,0.00,0.00,0.00,0.00
2013-08-17 04:00:00,0,49334,0,0.00,0,0,0,0,43576,50000,1921,50000,0,0,0,0,0.00,0.00,0.00,0.00
2013-08-17 04:10:00,0,49855,0,0.00,0,0,0,0,48783,50000,364,50000,0,0,0,0,0.00,0.00,0.00,0.00
2013-08-17 04:20:00,0,49847,0,0.00,0,0,0,0,48466,50000,460,50000,0,0,0,0,0.00,0.00,0.00,0.00
2013-08-17 04:30:00,0,49636,0,0.00,0,0,0,0,47204,50000,849,50000,0,0,0,0,0.00,0.00,0.00,0.00
2013-08-17 04:40:00,0,47575,0,0.00,0,0,0,0,42053,50000,2953,48950,0,0,0,0,0.00,0.00,0.00,0.00
2013-08-17 04:50:00,2,47245,0,0.00,0,2,1,2,40582,50000,3251,48948,0,0,0,0,0.00,0.00,0.00,0.00
2013-08-17 05:00:00,2,48640,0,0.00,0,2,1,2,43610,50000,1816,48778,0,0,0,0,0.00,0.00,0.00,0.00
2013-08-17 05:10:00,0,49926,0,0.00,0,0,0,0,49611,50000,149,50000,0,0,0,0,0.00,0.00,0.00,0.00
2013-08-17 05:20:00,0,48016,0,0.00,0,0,0,0,43147,50000,2580,50000,0,0,0,0,0.00,0.00,0.00,0.00
2013-08-17 05:30:00,0,47814,0,0.00,0,2,1,0,38473,50000,3725,50000,0,0,0,0,0.00,0.00,0.00,0.00
2013-08-17 05:40:00,0,48496,0,0.00,0,2,1,0,45145,50000,1732,49298,0,0,0,0,0.00,0.00,0.00,0.00
2013-08-17 05:50:00,0,47460,0,0.00,0,0,0,0,37779,50000,4117,50000,0,0,0,0,0.00,0.00,0.00,0.00
2013-08-17 06:00:00,0,49852,0,0.00,0,0,0,0,48524,50000,443,50000,0,0,0,0,0.00,0.00,0.00,0.00
2013-08-17 06:10:00,0,47562,0,0.00,0,0,0,0,41530,50000,3197,50000,0,0,0,0,0.00,0.00,0.00,0.00
2013-08-17 06:20:00,0,49408,0,0.00,0,0,0,0,47892,50000,830,50000,0,0,0,0,0.00,0.00,0.00,0.00
2013-08-17 06:30:00,0,49799,0,0.00,0,0,0,0,47989,50000,603,50000,0,0,0,0,0.00,0.00,0.00,0.00
2013-08-17 06:40:00,0,49572,0,0.00,0,0,0,0,47061,50000,922,50000,0,0,0,0,0.00,0.00,0.00,0.00
2013-08-17 06:50:00,0,49995,0,0.00,0,0,0,0,49950,50000,15,50000,0,0,0,0,0.00,0.00,0.00,0.00
2013-08-17 07:00:00,0,49463,0,0.00,0,0,0,0,46337,50000,1160,50000,0,0,0,0,0.00,0.00,0.00,0.00
2013-08-17 07:10:00,0,47907,0,0.00,0,2,1,0,39789,50000,3164,49982,0,0,0,0,0.00,0.00,0.00,0.00
2013-08-17 07:20:00,0,49892,0,0.00,0,0,0,0,48925,50000,322,50000,0,0,0,0,0.00,0.00,0.00,0.00
2013-08-17 07:30:00,1,48756,0,0.00,0,2,1,0,42689,50000,2191,49994,0,0,0,0,0.00,0.00,0.00,0.00
2013-08-17 07:40:00,0,49316,0,0.00,0,0,0,0,47211,50000,1005,49833,0,0,0,0,0.00,0.00,0.00,0.00
2013-08-17 07:50:00,0,49550,0,0.00,0,0,0,0,47595,50000,903,50000,0,0,0,0,0.00,0.00,0.00,0.00
2013-08-17 08:00:00,0,49964,0,0.00,0,0,0,0,49640,50000,108,50000,0,0,0,0,0.00,0.00,0.00,0.00
2013-08-17 08:10:00,0,50000,0,0.00,0,0,0,0,50000,50000,0,50000,0,0,0,0,0.00,0.00,0.00,0.00
2013-08-17 08:20:00,0,46427,6,0.01,0,0,0,0,39133,50000,4282,49544,0,61,18,0,0.00,0.05,0.02,0.00
2013-08-17 08:30:00,1,47687,57,0.14,0,2,1,2,43230,50000,2334,47909,51,61,5,61,0.00,0.25,0.08,0.15
2013-08-17 08:40:00,2,49126,51,0.19,0,2,1,2,45355,50000,1368,49728,51,51,0,51,0.05,0.45,0.13,0.15
2013-08-17 08:50:00,2,48308,51,0.34,0,2,1,2,44314,50000,2161,49535,51,51,0,51,0.05,0.55,0.20,0.30
2013-08-17 09:00:00,2,46131,51,0.14,0,2,1,2,42625,50000,2862,45124,51,51,0,51,0.00,0.25,0.08,0.15
2013-08-17 09:10:00,2,47801,30,0.04,0,2,1,2,38317,50000,3646,50000,0,61,25,41,0.00,0.20,0.06,0.00
2013-08-17 09:20:00,2,45285,53,0.11,0,2,1,2,39717,50000,4077,44560,51,61,4,51,0.00,0.30,0.10,0.08
2013-08-17 09:30:00,2,38055,17,0.03,0,2,1,2,30930,41227,3040,39242,0,61,27,0,0.00,0.15,0.06,0.00
2013-08-17 09:40:00,2,41010,55,0.07,2,2,0,2,30826,50000,5953,41058,51,61,5,51,0.00,0.15,0.06,0.05
2013-08-17 09:50:00,2,44518,57,0.24,2,2,0,2,38024,50000,4373,45073,51,61,5,61,0.00,0.70,0.23,0.15
2013-08-17 10:00:00,2,38709,51,0.50,0,2,1,2,35773,46504,3013,37753,51,52,0,51,0.10,0.95,0.31,0.45
2013-08-17 10:10:00,2,47840,58,0.68,2,2,0,2,40420,50000,3265,50000,51,61,5,61,0.20,2.75,0.75,0.35
2013-08-17 10:20:00,2,41787,56,0.76,2,2,0,2,35160,50000,4123,41482,51,61,5,56,0.25,1.40,0.42,0.70
2013-08-17 10:30:00,2,41054,51,0.68,2,2,0,2,33419,47509,3961,40384,51,52,0,51,0.25,1.25,0.36,0.60
2013-08-17 10:40:00,2,26401,54,1.86,2,2,0,2,19646,36313,4214,26540,52,61,4,52,0.60,3.25,0.71,1.80
2013-08-17 10:50:00,2,27121,61,2.04,2,2,0,2,22185,36341,4803,24696,61,61,0,61,0.90,3.30,0.73,1.95
2013-08-17 11:00:00,2,27790,61,2.71,2,2,0,2,21131,34974,4898,25628,61,61,0,61,1.35,4.35,1.06,2.58
2013-08-17 11:10:00,2,21828,61,3.30,2,2,0,2,13901,31446,4649,22202,61,61,0,61,2.25,6.60,1.17,3.10
2013-08-17 11:20:00,2,25050,61,3.17,2,2,0,2,13963,35979,6787,23715,61,61,0,61,1.10,5.85,1.51,2.98
2013-08-17 11:30:00,2,33689,61,2.66,2,2,0,2,28610,40964,3309,34128,61,61,0,61,0.95,5.10,1.42,1.93
2013-08-17 11:40:00,2,29388,61,2.18,2,2,0,2,23696,39868,4506,28676,61,61,0,61,1.30,3.20,0.71,1.98
2013-08-17 11:50:00,2,28448,57,1.48,2,2,0,2,23159,41872,5820,26573,52,61,4,61,0.90,2.55,0.50,1.35
2013-08-17 12:00:00,2,21471,59,3.61,2,2,0,2,17097,28055,3323,20096,52,61,4,61,2.60,5.25,0.79,3.40
2013-08-17 12:10:00,2,31962,61,2.08,2,2,0,2,24957,41646,4547,31544,61,61,0,61,1.35,2.65,0.47,2.12
2013-08-17 12:20:00,2,27627,61,2.50,2,2,0,2,22283,31876,2760,27685,61,61,0,61,1.45,4.30,1.03,2.17
2013-08-17 12:30:00,2,23819,61,3.88,2,2,0,2,13506,46645,9436,20846,61,61,0,61,1.30,7.55,1.88,3.58
2013-08-17 12:40:00,2,33262,61,1.65,2,2,0,2,14956,49674,11055,36650,61,61,0,61,0.80,2.80,0.62,1.80
2013-08-17 12:50:00,2,17528,61,4.24,2,2,0,2,12218,25952,5098,14707,61,61,0,61,1.95,5.75,1.13,4.53
2013-08-17 13:00:00,2,19707,61,4.62,2,2,0,2,13250,30136,4681,18914,61,61,0,61,3.30,6.75,0.90,4.43
2013-08-17 13:10:00,2,14623,61,7.10,2,2,0,2,11336,17523,1781,14631,61,62,0,61,4.65,13.30,2.48,6.20
2013-08-17 13:20:00,2,16164,61,4.41,2,2,0,2,13096,18919,1682,15660,61,61,0,61,2.75,6.50,1.04,4.15
2013-08-17 13:30:00,2,25910,61,2.35,2,2,0,2,18700,34494,6266,25340,61,61,0,61,0.85,4.00,0.93,2.50
2013-08-17 13:40:00,2,31805,54,1.14,2,2,0,2,24321,43626,4719,31320,52,61,4,52,0.75,1.75,0.30,1.10
2013-08-17 13:50:00,2,30942,56,1.64,2,2,0,2,23520,40123,4856,30698,52,61,4,56,0.95,3.00,0.60,1.48
2013-08-17 14:00:00,2,24630,52,1.39,2,2,0,2,20176,35730,4705,22812,52,52,0,52,0.75,2.25,0.44,1.45
2013-08-17 14:10:00,2,20336,58,2.85,2,2,0,2,18216,24232,2079,19584,52,61,4,61,0.85,4.40,1.07,3.28
2013-08-17 14:20:00,2,22692,61,3.75,2,2,0,2,19733,24889,1479,23162,61,61,0,61,1.80,6.30,1.25,3.65
2013-08-17 14:30:00,2,20892,61,2.35,2,2,0,2,15773,26805,3479,19548,61,61,0,61,1.10,4.45,1.10,2.00
2013-08-17 14:40:00,2,14376,56,2.06,2,2,0,2,11524,17809,1778,14674,52,61,4,52,1.35,3.00,0.49,1.95
2013-08-17 14:50:00,2,15850,56,1.24,2,2,0,2,12641,23168,3408,14700,52,61,4,52,0.40,2.20,0.58,1.20
2013-08-17 15:00:00,2,17708,52,1.42,2,2,0,2,14692,19854,1855,18242,52,52,0,52,0.90,3.00,0.59,1.25
2013-08-17 15:10:00,2,16877,57,2.02,2,2,0,2,14614,21327,1984,16720,52,61,4,61,1.40,3.30,0.49,1.85
2013-08-17 15:20:00,2,21409,52,0.50,2,2,0,2,16528,28234,3581,20068,51,52,0,52,0.15,1.05,0.34,0.30
2013-08-17 15:30:00,2,34566,54,0.17,2,2,0,2,25777,41969,6076,35578,51,61,5,51,0.05,0.45,0.12,0.12
2013-08-17 15:40:00,2,42138,61,0.08,2,2,0,2,31923,50000,6510,42714,61,61,0,61,0.00,0.25,0.08,0.05
2013-08-17 15:50:00,2,45037,56,0.11,2,2,0,2,27088,50000,6930,48564,51,61,5,56,0.05,0.20,0.06,0.12
2013-08-17 16:00:00,2,32183,45,0.10,2,2,0,2,22058,40192,4969,33309,0,61,23,51,0.00,0.25,0.07,0.10
2013-08-17 16:10:00,2,47486,0,0.00,2,2,0,2,40115,50000,3040,48573,0,0,0,0,0.00,0.00,0.00,0.00
2013-08-17 16:20:00,2,49920,0,0.00,2,2,0,2,49200,50000,240,50000,0,0,0,0,0.00,0.00,0.00,0.00
2013-08-17 16:30:00,2,50000,0,0.00,2,2,0,2,50000,50000,0,50000,0,0,0,0,0.00,0.00,0.00,0.00
2013-08-17 16:40:00,2,49955,0,0.00,2,2,0,2,49546,50000,136,50000,0,0,0,0,0.00,0.00,0.00,0.00
2013-08-17 16:50:00,2,36263,0,0.00,2,2,0,2,12343,50000,15552,45776,0,0,0,0,0.00,0.00,0.00,0.00
2013-08-17 17:00:00,2,10909,0,0.00,2,2,0,2,9249,13019,978,10849,0,0,0,0,0.00,0.00,0.00,0.00
2013-08-17 17:10:00,2,10873,0,0.00,2,2,0,2,9421,12619,1065,10584,0,0,0,0,0.00,0.00,0.00,0.00
2013-08-17 17:20:00,2,9112,0,0.00,2,2,0,2,8113,10780,837,8931,0,0,0,0,0.00,0.00,0.00,0.00
2013-08-17 17:30:00,2,7260,10,0.00,2,2,0,2,6390,8296,681,7066,10,10,0,10,0.00,0.00,0.00,0.00
2013-08-17 17:40:00,2,7195,10,0.00,2,2,0,2,6194,8019,560,7296,10,10,0,10,0.00,0.00,0.00,0.00
2013-08-17 17:50:00,2,7581,10,0.00,2,2,0,2,6446,9302,1075,7092,10,10,0,10,0.00,0.00,0.00,0.00
2013-08-17 18:00:00,2,4518,10,0.00,2,2,0,2,3413,6873,1091,4130,10,10,0,10,0.00,0.00,0.00,0.00
2013-08-17 18:10:00,2,3283,32,0.26,2,2,0,2,3027,3642,182,3260,10,61,23,30,0.00,0.65,0.28,0.10
2013-08-17 18:20:00,2,4418,35,0.16,2,2,0,2,3644,6218,843,4028,10,51,17,41,0.00,0.35,0.13,0.20
2013-08-17 18:30:00,2,8574,10,0.00,2,2,0,2,6503,10077,1182,8925,10,10,0,10,0.00,0.00,0.00,0.00
2013-08-17 18:40:00,2,11040,10,0.00,2,2,0,2,10175,11904,540,10922,10,10,0,10,0.00,0.00,0.00,0.00
2013-08-17 18:50:00,2,13148,6,0.00,2,2,0,2,10653,16849,1934,12356,0,10,5,10,0.00,0.00,0.00,0.00
2013-08-17 19:00:00,2,24088,0,0.00,2,2,0,2,17451,36496,6022,22632,0,0,0,0,0.00,0.00,0.00,0.00
2013-08-17 19:10:00,2,43297,0,0.00,2,2,0,2,34098,50000,6497,45423,0,0,0,0,0.00,0.00,0.00,0.00
2013-08-17 19:20:00,2,49958,0,0.00,2,2,0,2,49585,50000,124,50000,0,0,0,0,0.00,0.00,0.00,0.00
2013-08-17 19:30:00,2,49280,0,0.00,2,2,0,2,46874,50000,1071,50000,0,0,0,0,0.00,0.00,0.00,0.00
2013-08-17 19:40:00,2,21836,33,0.72,2,2,0,2,4651,49534,19329,9142,0,61,27,52,0.00,2.05,0.77,0.42
2013-08-17 19:50:00,2,4383,52,1.44,2,2,0,2,3365,7529,1133,4218,52,52,0,52,0.50,2.00,0.43,1.50
2013-08-17 20:00:00,2,33996,27,0.03,2,2,0,2,8325,50000,16493,40846,10,61,21,10,0.00,0.20,0.07,0.00
2013-08-17 20:10:00,2,21502,0,0.00,2,2,0,2,10300,48755,14414,13516,0,0,0,0,0.00,0.00,0.00,0.00
2013-08-17 20:20:00,2,8338,3,0.00,2,2,0,2,2245,16942,5392,7780,0,10,5,0,0.00,0.00,0.00,0.00
2013-08-17 20:30:00,2,2501,10,0.00,2,2,0,2,2144,2838,265,2410,10,10,0,10,0.00,0.00,0.00,0.00
2013-08-17 20:40:00,2,2903,10,0.00,2,2,0,2,2648,3276,202,2824,10,10,0,10,0.00,0.00,0.00,0.00
2013-08-17 20:50:00,2,2951,15,0.00,2,2,0,2,2288,4033,623,2756,10,61,15,10,0.00,0.00,0.00,0.00
2013-08-17 21:00:00,2,2797,53,1.41,2,2,0,2,2325,3393,352,2682,52,61,3,52,0.70,1.90,0.32,1.43
2013-08-17 21:10:00,2,2978,52,2.27,2,2,0,2,2756,3307,166,2968,52,52,0,52,1.50,2.80,0.35,2.33
2013-08-17 21:20:00,2,3791,52,1.69,2,2,0,2,2849,5871,1105,3192,52,52,0,52,0.85,2.15,0.39,1.82
2013-08-17 21:30:00,2,4395,59,5.12,2,2,0,2,3357,5841,855,4084,52,62,4,61,1.00,14.45,3.95,3.42
2013-08-17 21:40:00,2,4084,62,11.88,2,2,0,2,3471,4906,477,4059,61,62,0,62,5.55,18.30,3.70,11.07
2013-08-17 21:50:00,2,5481,62,11.71,2,2,0,2,4590,5928,368,5568,61,62,0,62,7.15,18.45,3.25,11.05
2013-08-17 22:00:00,2,5587,62,25.08,2,2,0,2,5046,6482,452,5471,62,62,0,62,12.05,37.70,6.86,24.45
2013-08-17 22:10:00,2,6967,62,13.14,2,2,0,2,5757,8104,760,6908,61,62,0,62,8.75,21.75,4.30,11.77
2013-08-17 22:20:00,2,9576,61,7.92,2,2,0,2,8314,11081,847,9474,61,62,0,61,5.75,10.00,1.33,7.88
2013-08-17 22:30:00,2,9732,62,14.44,2,2,0,2,8868,10577,643,9968,61,62,0,62,7.25,20.05,4.68,14.93
2013-08-17 22:40:00,2,12432,62,13.50,2,2,0,2,9225,14920,2048,13308,61,62,0,62,7.10,30.10,6.98,11.05
2013-08-17 22:50:00,2,14546,61,6.92,2,2,0,2,13212,17984,1682,13697,61,62,0,61,3.90,11.90,2.59,6.47
2013-08-17 23:00:00,2,14835,61,7.53,2,2,0,2,12084,21895,2606,13966,61,62,0,61,3.70,12.60,2.93,7.12
2013-08-17 23:10:00,2,13681,62,13.12,2,2,0,2,11668,16453,1503,13568,61,62,0,62,4.80,20.70,4.51,12.45
2013-08-17 23:20:00,2,9858,62,25.81,2,2,0,2,7540,12292,1531,9748,62,62,0,62,12.40,37.75,8.12,26.30
2013-08-17 23:30:00,2,12095,62,14.77,2,2,0,2,9186,15850,2105,12194,61,62,0,62,7.00,27.35,6.13,13.97
2013-08-17 23:40:00,2,13992,61,7.97,2,2,0,2,11495,17041,1804,13730,61,62,0,61,3.50,13.70,3.29,8.43
2013-08-17 23:50:00,2,15844,61,4.20,2,2,0,2,13355,17714,1345,16084,61,61,0,61,2.45,9.45,2.02,3.33
